• Join FlightAware (Why Join?)
  • Login
  • US Flag 
06:18PM EST


 

Airport Tracker/Info


-or-


 

Live Flight TrackerFlight Track Log ✈ SWA2432 ✈ 30-Apr-2013 ✈ KOAK - KLAX

Flight Track Log - Related Links

Times and Time Zones

All times are in EDT time to prevent confusion due to time zone crossing. See the SWA2432 flight status page for this flight to view local times or setup timezone preferences in your user account.

Time Position Orientation Groundspeed Altitude Reporting Facility
EDT Latitude Longitude Course Direction KTS MPH feet Rate Location/Type
06:31PM 37.7333 -122.2500 150° Southeast 157 181 1,200  Level Northern Cal TRACON
06:32PM 37.7500 -122.3167 288° West 228 262 3,100 2,150 Climbing Northern Cal TRACON
06:33PM 37.7000 -122.3833 227° Southwest 276 318 5,500 3,050 Climbing Northern Cal TRACON
06:34PM 37.6167 -122.4167 198° South 306 352 9,200 3,615 Climbing Northern Cal TRACON
06:35PM 37.5972 -122.4258 200° South 298 343 10,200 2,810 Climbing Oakland Center
06:36PM 37.5133 -122.4122 173° South 328 377 12,900 2,634 Climbing Oakland Center
06:37PM 37.3361 -122.3662 150° Southeast  Level FlightAware Approximate
06:37PM 37.4519 -122.3144 128° Southeast 358 412 15,600  Level Oakland Center
06:38PM 37.3769 -122.2144 133° Southeast 389 448 18,300 2,951 Climbing Oakland Center
06:39PM 37.3000 -122.1136 134° Southeast 400 460 21,600 2,705 Climbing Oakland Center
06:40PM 37.2247 -122.0117 133° Southeast 399 459 23,800 2,262 Climbing Oakland Center
06:41PM 37.1442 -121.9044 133° Southeast 419 482 26,200 2,098 Climbing Oakland Center
06:42PM 37.0625 -121.7972 134° Southeast 425 489 28,100 1,805 Climbing Oakland Center
06:43PM 36.9778 -121.6875 134° Southeast 436 502 29,900 1,820 Climbing Oakland Center
06:44PM 36.8742 -121.5525 134° Southeast 448 516 31,800 1,869 Climbing Oakland Center
06:45PM 36.7903 -121.4411 133° Southeast 453 521 33,700 1,756 Climbing Oakland Center
06:46PM 36.7039 -121.3272 133° Southeast 451 519 35,400 1,463 Climbing Oakland Center
06:47PM 36.6178 -121.2169 134° Southeast 446 513 36,700 787 Climbing Oakland Center
06:48PM 36.5300 -121.1033 134° Southeast 454 522 37,000 98 Climbing Oakland Center
06:49PM 36.4406 -120.9861 133° Southeast 464 534 36,900 -49 Descending Oakland Center
06:50PM 36.3542 -120.8728 133° Southeast 453 521 36,900 49 Level Oakland Center
06:51PM 36.2689 -120.7656 135° Southeast 441 507 37,000  Climbing Oakland Center
06:52PM 36.1769 -120.6525 135° Southeast 461 531 36,900 -49 Descending Oakland Center
06:53PM 36.0597 -120.5247 139° Southeast 465 535 36,900 49 Level Oakland Center
06:54PM 35.9642 -120.4169 138° Southeast 464 534 37,000  Climbing Oakland Center
06:55PM 35.8675 -120.3100 138° Southeast 465 535 36,900 -49 Descending Oakland Center
06:56PM 35.7719 -120.2050 138° Southeast 460 529 36,900  Level Oakland Center
06:57PM 35.6775 -120.1003 138° Southeast 456 525 36,900  Level Oakland Center
06:58PM 35.5825 -119.9950 138° Southeast 456 525 36,900 -49 Level Oakland Center
06:59PM 35.4867 -119.8906 138° Southeast 457 526 36,800 -585 Descending Oakland Center
07:00PM 35.3925 -119.7883 138° Southeast 451 519 35,700 -1,024 Descending Oakland Center
07:01PM 35.2989 -119.6872 139° Southeast 447 514 34,700 -934 Descending Oakland Center
07:02PM 35.2031 -119.5936 141° Southeast 442 509 33,800 -885 Descending Oakland Center
07:03PM 35.0992 -119.5078 146° Southeast 446 513 32,900 -868 Descending Oakland Center
07:03PM 35.0803 -119.4906 143° Southeast 448 516 32,700 -1,091 Descending Los Angeles Center
07:05PM 34.9572 -119.3856 145° Southeast 449 517 31,500 -1,597 Descending Los Angeles Center
07:06PM 34.8533 -119.2978 145° Southeast 452 520 29,400 -2,274 Descending Los Angeles Center
07:07PM 34.7533 -119.2122 145° Southeast 442 509 26,800 -2,468 Descending Los Angeles Center
07:08PM 34.6553 -119.1308 146° Southeast 428 493 24,300 -2,419 Descending Los Angeles Center
07:09PM 34.5578 -119.0506 146° Southeast 410 472 21,800 -2,371 Descending Los Angeles Center
07:10PM 34.4672 -118.9742 145° Southeast 397 457 19,400 -2,274 Descending Los Angeles Center
07:11PM 34.3800 -118.9019 146° Southeast 378 435 17,100 -2,468 Descending Los Angeles Center
07:12PM 34.2661 -118.8703 167° South 361 415 14,300 -2,162 Descending Los Angeles Center
07:13PM 34.1703 -118.8711 180° South 346 398 12,200 -1,676 Descending Los Angeles Center
07:14PM 34.0778 -118.8217 156° South 326 375 10,500 -1,065 Descending Los Angeles Center
07:15PM 34.0564 -118.7064 103° East 316 364 10,000 -629 Descending Los Angeles Center
07:16PM 34.0369 -118.6028 103° East 316 364 9,200 -1,161 Descending Los Angeles Center
07:17PM 34.0164 -118.4925 103° East 312 359 7,600 -1,073 Descending Los Angeles Center
07:18PM 34.0153 -118.4131 91° East 301 346 7,000 -823 Descending Los Angeles Center
07:19PM 34.0239 -118.3069 84° East 270 311 5,900 -960 Descending Los Angeles Center
07:20PM 34.0322 -118.2192 83° East 264 304 5,000 -829 Descending Los Angeles Center
07:21PM 34.0397 -118.1553 82° East 250 288 4,200 -1,333 Descending Los Angeles Center
07:22PM 34.0000 -118.1000 131° Southeast 236 272 2,600 -701 Descending Southern California TRACON
07:24PM 33.9739 -118.1836 249° West 206 237 2,600 -39 Level Los Angeles Center
07:25PM 33.9667 -118.2619 264° West 200 230 2,500 -484 Descending Los Angeles Center
07:26PM 33.9603 -118.3208 263° West 190 219 1,600 -829 Descending Los Angeles Center
07:27PM 33.9572 -118.3650 265° West 155 178 800 -732 Descending Los Angeles Center
07:28PM 33.9519 -118.4078 262° West 139 160 100 -677 Descending Los Angeles Center
07:30PM 33.9425 -118.4081 85° East  Level Estimated